Leeming, United Kingdom

1:27 AM BST on April 24, 2017 (GMT +0100)
Leeming Air Base

Weather History for EGXE - October, 2012

Change the Weather History Date:

Sunday, October 28, 2012

  Actual Average (EGNV) Record (EGNV)
Temperature  
Mean Temperature 43 °F -  
Max Temperature 50 °F 49 °F 64 °F (2005)
Min Temperature 36 °F 37 °F 26 °F (1997)
Degree Days  
Heating Degree Days 22    
Moisture  
Dew Point 41 °F    
Average Humidity 82    
Maximum Humidity 96    
Minimum Humidity 63    
Precipitation  
Precipitation 0.01 in 0.07 in - ()
Sea Level Pressure  
Sea Level Pressure 29.77 in    
Wind  
Wind Speed 8 mph ()    
Max Wind Speed 17 mph    
Max Gust Speed 26 mph    
Visibility 7.6 miles    
Events Rain    
Averages and records for this station are not official NWS values.
T = Trace of Precipitation, MM = Missing Value Source: Averaged Metar Reports

Daily Weather History Graph

Daily Weather History Graph

Search for Another Location

Airport or City:

Trip Planner

Search our weather history database for the weather conditions in past years. The results will help you decide how hot, cold, wet, or windy it might be!

Date:

Astronomy

Oct. 28, 2012 Rise Set
Actual Time 7:00 AM GMT 4:38 PM GMT
Civil Twilight 6:22 AM GMT 5:15 PM GMT
Nautical Twilight 5:41 AM GMT 5:57 PM GMT
Astronomical Twilight 4:59 AM GMT 6:38 PM GMT
Moon 3:51 PM GMT (10/28) 5:33 AM GMT (10/28)
Length of Visible Light 10h 52m
Length of Day
9h 38m
Waxing Gibbous, 98% of the Moon is Illuminated
Oct 28
Waxing Gibbous
Oct 29
Full
Nov 7
Last Quarter
Nov 13
New
Nov 20
First Quarter

Hourly Weather History & Observations

Time (GMT) Temp. Windchill Dew Point Humidity Pressure Visibility Wind Dir Wind Speed Gust Speed Precip Events Conditions
12:50 AM 43 °F - 37 °F 72% 30.03 in 10 mi WSW 9.2 mph - - Rain Light Rain Showers
12:50 AM 42.8 °F 37.5 °F 37.4 °F 81% 30.01 in 6.2 mi WSW 9.2 mph - N/A Rain Light Rain Showers
1:50 AM 42.8 °F 37.5 °F 37.4 °F 81% 29.98 in 6.2 mi WSW 9.2 mph - N/A Rain Light Rain
1:50 AM 42.8 °F 39.3 °F 37.4 °F 81% 29.95 in 6.2 mi SSE 5.8 mph - N/A Rain Light Rain
2:50 AM 44 °F - 40 °F 81% 29.92 in 15 mi South 6.9 mph - - Rain Light Rain
3:50 AM 42.8 °F 39.3 °F 41.0 °F 93% 29.86 in 6.2 mi SSE 5.8 mph - N/A Rain Light Rain Showers
4:50 AM 42.8 °F 38.6 °F 41.0 °F 93% 29.86 in 6.2 mi SE 6.9 mph - N/A   Overcast
5:50 AM 42 °F - 41 °F 96% 29.84 in 9 mi SE 6.9 mph - -  
5:50 AM 42.8 °F 38.6 °F 41.0 °F 93% 29.83 in 6.2 mi SE 6.9 mph - N/A   Overcast
6:50 AM 42.8 °F 39.3 °F 41.0 °F 93% 29.83 in 5.6 mi SSE 5.8 mph - N/A   Overcast
7:50 AM 42.8 °F 39.3 °F 41.0 °F 93% 29.80 in 3.7 mi SE 5.8 mph - N/A Rain Light Rain Showers
8:50 AM 45 °F - 43 °F 92% 29.81 in 7 mi SSE 4.6 mph - - Rain Light Rain Showers
8:50 AM 44.6 °F 42.2 °F 42.8 °F 93% 29.80 in 6.2 mi SSE 4.6 mph - N/A Rain Light Rain Showers
9:50 AM 50.0 °F - 44.6 °F 82% 29.77 in 6.2 mi West 10.4 mph - N/A   Mostly Cloudy
10:50 AM 50.0 °F - 42.8 °F 76% 29.77 in 6.2 mi SW 5.8 mph - N/A   Mostly Cloudy
11:50 AM 51 °F - 42 °F 63% 29.75 in 14 mi West 12.7 mph - -   Scattered Clouds
11:50 AM 50.0 °F - 42.8 °F 76% 29.74 in 6.2 mi West 12.7 mph - N/A   Mostly Cloudy
12:50 PM 50.0 °F - 42.8 °F 76% 29.71 in 6.2 mi WSW 15.0 mph - N/A   Overcast
1:50 PM 50.0 °F - 42.8 °F 76% 29.68 in 6.2 mi WSW 15.0 mph 26.5 mph N/A   Overcast
2:50 PM 50.0 °F - 42.8 °F 76% 29.68 in 6.2 mi WSW 17.3 mph - N/A Rain Light Rain Showers
3:50 PM 48.2 °F - 41.0 °F 76% 29.65 in 6.2 mi WSW 15.0 mph - N/A   Mostly Cloudy
4:50 PM 48.2 °F - 42.8 °F 82% 29.65 in 6.2 mi SW 12.7 mph - N/A   Mostly Cloudy
5:50 PM 47 °F - 41 °F 73% 29.67 in 17 mi SSW 8.1 mph - -   Mostly Cloudy
5:50 PM 46.4 °F 42.4 °F 41.0 °F 81% 29.65 in 6.2 mi SSW 8.1 mph - N/A   Mostly Cloudy
6:50 PM 46.4 °F 41.9 °F 41.0 °F 81% 29.65 in 6.2 mi SSW 9.2 mph - N/A   Overcast
7:50 PM 48.2 °F - 41.0 °F 76% 29.65 in 6.2 mi SSW 9.2 mph - N/A   Mostly Cloudy
8:50 PM 47 °F - 42 °F 77% 29.67 in 17 mi South 9.2 mph - -   Scattered Clouds
8:50 PM 46.4 °F 41.9 °F 42.8 °F 87% 29.65 in 6.2 mi South 9.2 mph - N/A   Mostly Cloudy
9:50 PM 48.2 °F - 42.8 °F 82% 29.65 in 6.2 mi South 9.2 mph - N/A   Scattered Clouds
10:50 PM 46.4 °F 41.9 °F 42.8 °F 87% 29.65 in 6.2 mi South 9.2 mph - N/A   Mostly Cloudy